{"data":{"norad_id":67178,"epoch":"2026-05-24T23:35:52.812096Z","epoch_age_seconds":79585,"freshness":"FRESH","line1":"1 67178U 25303R   26144.98325014  .00012393  00000+0  45881-3 0  9997","line2":"2 67178  42.9994 239.8120 0000047 277.4930  82.5916 15.27601150 24405","mean_motion":15.2760115,"eccentricity":4.7e-6,"inclination_deg":42.9994,"raan_deg":239.812,"arg_perigee_deg":277.493,"mean_anomaly_deg":82.5916,"bstar":0.00045881,"rev_number":2440,"period_min":94.265443568172,"perigee_km":482.95351878467,"apogee_km":483.01801333867,"semimajor_km":6861.1227660617,"source":"CELESTRAK","updated_at":"2026-05-25T13:38:21.482907Z"}}